Year,Month,Day,Hour,Minute,Value (Times are PST for windgust in km/hr)
2011,07,07,00,09,1.60
2011,07,07,00,10,1.60
2011,07,07,00,21,1.60
2011,07,07,00,22,1.60
2011,07,07,00,25,1.60
2011,07,07,00,26,1.60
2011,07,07,00,27,1.60
2011,07,07,00,28,3.20
2011,07,07,00,29,1.60
2011,07,07,00,30,1.60
2011,07,07,00,32,1.60
2011,07,07,00,35,1.60
2011,07,07,00,44,1.60
2011,07,07,00,45,1.60
2011,07,07,00,49,1.60
2011,07,07,00,51,1.60
2011,07,07,00,52,1.60
2011,07,07,01,07,3.20
2011,07,07,01,08,3.20
2011,07,07,01,09,1.60
2011,07,07,01,10,1.60
2011,07,07,01,12,1.60
2011,07,07,01,13,3.20
2011,07,07,01,14,1.60
2011,07,07,01,15,1.60
2011,07,07,01,21,1.60
2011,07,07,01,31,1.60
2011,07,07,01,32,4.80
2011,07,07,01,33,6.40
2011,07,07,01,34,8.10
2011,07,07,01,35,4.80
2011,07,07,01,36,4.80
2011,07,07,01,37,4.80
2011,07,07,01,40,1.60
2011,07,07,01,41,4.80
2011,07,07,01,45,3.20
2011,07,07,01,46,1.60
2011,07,07,01,47,1.60
2011,07,07,01,48,1.60
2011,07,07,01,49,1.60
2011,07,07,01,56,1.60
2011,07,07,01,57,1.60
2011,07,07,01,59,1.60
2011,07,07,02,22,1.60
2011,07,07,02,24,1.60
2011,07,07,02,34,1.60
2011,07,07,02,36,1.60
2011,07,07,02,39,1.60
2011,07,07,02,40,1.60
2011,07,07,02,41,1.60
2011,07,07,02,46,1.60
2011,07,07,02,48,1.60
2011,07,07,02,50,1.60
2011,07,07,02,51,1.60
2011,07,07,02,59,1.60
2011,07,07,03,08,1.60
2011,07,07,03,09,1.60
2011,07,07,03,17,1.60
2011,07,07,03,28,1.60
2011,07,07,03,29,1.60
2011,07,07,03,32,1.60
2011,07,07,03,43,3.20
2011,07,07,03,50,1.60
2011,07,07,04,01,1.60
2011,07,07,04,04,1.60
2011,07,07,04,05,1.60
2011,07,07,04,15,3.20
2011,07,07,04,16,3.20
2011,07,07,04,17,1.60
2011,07,07,04,23,3.20
2011,07,07,04,24,4.80
2011,07,07,04,25,3.20
2011,07,07,04,26,1.60
2011,07,07,04,30,4.80
2011,07,07,04,31,4.80
2011,07,07,04,32,1.60
2011,07,07,04,43,1.60
2011,07,07,04,49,1.60
2011,07,07,04,52,1.60
2011,07,07,04,53,1.60
2011,07,07,04,56,1.60
2011,07,07,04,57,1.60
2011,07,07,05,01,1.60
2011,07,07,05,08,11.30
2011,07,07,05,09,6.40
2011,07,07,05,10,1.60
2011,07,07,05,11,4.80
2011,07,07,05,13,1.60
2011,07,07,05,16,4.80
2011,07,07,05,17,6.40
2011,07,07,05,18,3.20
2011,07,07,05,19,1.60
2011,07,07,05,20,1.60
2011,07,07,05,21,1.60
2011,07,07,05,22,1.60
2011,07,07,05,23,12.90
2011,07,07,05,24,6.40
2011,07,07,05,25,6.40
2011,07,07,05,26,9.60
2011,07,07,05,27,8.10
2011,07,07,05,28,6.40
2011,07,07,05,29,6.40
2011,07,07,05,30,6.40
2011,07,07,05,31,3.20
2011,07,07,05,32,1.60
2011,07,07,05,33,1.60
2011,07,07,05,34,3.20
2011,07,07,05,35,1.60
2011,07,07,05,36,4.80
2011,07,07,05,37,6.40
2011,07,07,05,38,1.60
2011,07,07,05,39,6.40
2011,07,07,05,40,4.80
2011,07,07,05,41,1.60
2011,07,07,05,42,8.10
2011,07,07,05,43,6.40
2011,07,07,05,44,4.80
2011,07,07,05,45,3.20
2011,07,07,05,46,11.30
2011,07,07,05,47,6.40
2011,07,07,05,48,8.10
2011,07,07,05,49,9.60
2011,07,07,05,50,6.40
2011,07,07,05,51,11.30
2011,07,07,05,52,8.10
2011,07,07,05,53,6.40
2011,07,07,05,54,9.60
2011,07,07,05,55,8.10
2011,07,07,05,56,9.60
2011,07,07,05,57,8.10
2011,07,07,05,58,9.60
2011,07,07,05,59,14.50
2011,07,07,06,00,8.10
2011,07,07,06,01,9.60
2011,07,07,06,02,8.10
2011,07,07,06,03,17.70
2011,07,07,06,04,16.10
2011,07,07,06,05,9.60
2011,07,07,06,06,3.20
2011,07,07,06,07,6.40
2011,07,07,06,08,4.80
2011,07,07,06,09,8.10
2011,07,07,06,10,6.40
2011,07,07,06,11,4.80
2011,07,07,06,12,4.80
2011,07,07,06,13,9.60
2011,07,07,06,14,9.60
2011,07,07,06,15,3.20
2011,07,07,06,16,11.30
2011,07,07,06,17,11.30
2011,07,07,06,18,8.10
2011,07,07,06,19,9.60
2011,07,07,06,20,9.60
2011,07,07,06,21,9.60
2011,07,07,06,22,8.10
2011,07,07,06,23,6.40
2011,07,07,06,24,1.60
2011,07,07,06,25,8.10
2011,07,07,06,26,4.80
2011,07,07,06,27,4.80
2011,07,07,06,28,6.40
2011,07,07,06,29,4.80
2011,07,07,06,30,16.10
2011,07,07,06,31,8.10
2011,07,07,06,32,8.10
2011,07,07,06,33,9.60
2011,07,07,06,34,11.30
2011,07,07,06,35,8.10
2011,07,07,06,36,12.90
2011,07,07,06,37,16.10
2011,07,07,06,38,9.60
2011,07,07,06,39,6.40
2011,07,07,06,40,8.10
2011,07,07,06,41,6.40
2011,07,07,06,42,4.80
2011,07,07,06,43,9.60
2011,07,07,06,44,9.60
2011,07,07,06,45,9.60
2011,07,07,06,46,4.80
2011,07,07,06,47,8.10
2011,07,07,06,48,11.30
2011,07,07,06,49,9.60
2011,07,07,06,50,17.70
2011,07,07,06,51,8.10
2011,07,07,06,52,9.60
2011,07,07,06,53,14.50
2011,07,07,06,54,8.10
2011,07,07,06,55,8.10
2011,07,07,06,56,8.10
2011,07,07,06,57,6.40
2011,07,07,06,58,12.90
2011,07,07,06,59,11.30
2011,07,07,07,00,9.60
2011,07,07,07,01,9.60
2011,07,07,07,02,9.60
2011,07,07,07,03,9.60
2011,07,07,07,04,8.10
2011,07,07,07,05,11.30
2011,07,07,07,06,4.80
2011,07,07,07,07,19.30
2011,07,07,07,08,6.40
2011,07,07,07,09,14.50
2011,07,07,07,10,4.80
2011,07,07,07,11,9.60
2011,07,07,07,12,14.50
2011,07,07,07,13,8.10
2011,07,07,07,14,8.10
2011,07,07,07,15,11.30
2011,07,07,07,16,8.10
2011,07,07,07,17,4.80
2011,07,07,07,18,4.80
2011,07,07,07,19,8.10
2011,07,07,07,20,1.60
2011,07,07,07,21,12.90
2011,07,07,07,22,4.80
2011,07,07,07,23,4.80
2011,07,07,07,24,6.40
2011,07,07,07,25,4.80
2011,07,07,07,26,3.20
2011,07,07,07,27,3.20
2011,07,07,07,28,1.60
2011,07,07,07,29,6.40
2011,07,07,07,30,11.30
2011,07,07,07,31,14.50
2011,07,07,07,32,9.60
2011,07,07,07,33,11.30
2011,07,07,07,34,4.80
2011,07,07,07,35,6.40
2011,07,07,07,36,6.40
2011,07,07,07,37,3.20
2011,07,07,07,38,3.20
2011,07,07,07,39,1.60
2011,07,07,07,40,1.60
2011,07,07,07,41,8.10
2011,07,07,07,42,9.60
2011,07,07,07,43,8.10
2011,07,07,07,44,11.30
2011,07,07,07,45,9.60
2011,07,07,07,46,8.10
2011,07,07,07,47,4.80
2011,07,07,07,48,8.10
2011,07,07,07,49,4.80
2011,07,07,07,50,11.30
2011,07,07,07,51,8.10
2011,07,07,07,52,6.40
2011,07,07,07,53,8.10
2011,07,07,07,54,4.80
2011,07,07,07,55,8.10
2011,07,07,07,56,11.30
2011,07,07,07,57,8.10
2011,07,07,07,58,9.60
2011,07,07,07,59,8.10
2011,07,07,08,00,12.90
2011,07,07,08,01,3.20
2011,07,07,08,02,6.40
2011,07,07,08,03,4.80
2011,07,07,08,04,3.20
2011,07,07,08,05,3.20
2011,07,07,08,06,8.10
2011,07,07,08,07,12.90
2011,07,07,08,08,8.10
2011,07,07,08,09,4.80
2011,07,07,08,10,16.10
2011,07,07,08,11,11.30
2011,07,07,08,12,14.50
2011,07,07,08,13,1.60
2011,07,07,08,14,3.20
2011,07,07,08,15,3.20
2011,07,07,08,16,8.10
2011,07,07,08,17,14.50
2011,07,07,08,18,8.10
2011,07,07,08,19,16.10
2011,07,07,08,20,12.90
2011,07,07,08,21,11.30
2011,07,07,08,22,4.80
2011,07,07,08,23,11.30
2011,07,07,08,24,9.60
2011,07,07,08,25,1.60
2011,07,07,08,26,14.50
2011,07,07,08,27,11.30
2011,07,07,08,28,11.30
2011,07,07,08,29,11.30
2011,07,07,08,30,8.10
2011,07,07,08,31,6.40
2011,07,07,08,32,4.80
2011,07,07,08,33,9.60
2011,07,07,08,34,6.40
2011,07,07,08,35,3.20
2011,07,07,08,36,4.80
2011,07,07,08,37,17.70
2011,07,07,08,38,12.90
2011,07,07,08,39,14.50
2011,07,07,08,40,9.60
2011,07,07,08,41,9.60
2011,07,07,08,42,14.50
2011,07,07,08,43,6.40
2011,07,07,08,44,4.80
2011,07,07,08,45,4.80
2011,07,07,08,46,8.10
2011,07,07,08,47,14.50
2011,07,07,08,48,16.10
2011,07,07,08,49,6.40
2011,07,07,08,50,3.20
2011,07,07,08,51,4.80
2011,07,07,08,52,9.60
2011,07,07,08,53,14.50
2011,07,07,08,54,1.60
2011,07,07,08,55,8.10
2011,07,07,08,56,17.70
2011,07,07,08,57,14.50
2011,07,07,08,58,3.20
2011,07,07,08,59,12.90
2011,07,07,09,00,17.70
2011,07,07,09,01,9.60
2011,07,07,09,02,8.10
2011,07,07,09,03,8.10
2011,07,07,09,04,3.20
2011,07,07,09,05,4.80
2011,07,07,09,06,8.10
2011,07,07,09,07,4.80
2011,07,07,09,08,11.30
2011,07,07,09,09,9.60
2011,07,07,09,10,8.10
2011,07,07,09,11,17.70
2011,07,07,09,12,16.10
2011,07,07,09,13,14.50
2011,07,07,09,14,19.30
2011,07,07,09,15,14.50
2011,07,07,09,16,9.60
2011,07,07,09,17,16.10
2011,07,07,09,18,14.50
2011,07,07,09,19,9.60
2011,07,07,09,20,6.40
2011,07,07,09,21,8.10
2011,07,07,09,22,17.70
2011,07,07,09,23,16.10
2011,07,07,09,24,19.30
2011,07,07,09,25,17.70
2011,07,07,09,26,11.30
2011,07,07,09,27,3.20
2011,07,07,09,28,6.40
2011,07,07,09,29,6.40
2011,07,07,09,30,19.30
2011,07,07,09,31,19.30
2011,07,07,09,32,11.30
2011,07,07,09,33,9.60
2011,07,07,09,34,8.10
2011,07,07,09,35,9.60
2011,07,07,09,36,6.40
2011,07,07,09,37,8.10
2011,07,07,09,38,16.10
2011,07,07,09,39,11.30
2011,07,07,09,40,8.10
2011,07,07,09,41,8.10
2011,07,07,09,42,12.90
2011,07,07,09,43,14.50
2011,07,07,09,44,3.20
2011,07,07,09,45,14.50
2011,07,07,09,46,6.40
2011,07,07,09,47,8.10
2011,07,07,09,48,8.10
2011,07,07,09,49,14.50
2011,07,07,09,50,9.60
2011,07,07,09,51,11.30
2011,07,07,09,52,16.10
2011,07,07,09,53,11.30
2011,07,07,09,54,16.10
2011,07,07,09,55,9.60
2011,07,07,09,56,17.70
2011,07,07,09,57,14.50
2011,07,07,09,58,19.30
2011,07,07,09,59,24.20
2011,07,07,10,00,19.30
2011,07,07,10,01,17.70
2011,07,07,10,02,17.70
2011,07,07,10,03,14.50
2011,07,07,10,04,17.70
2011,07,07,10,05,17.70
2011,07,07,10,06,17.70
2011,07,07,10,07,25.70
2011,07,07,10,08,22.50
2011,07,07,10,09,22.50
2011,07,07,10,10,25.70
2011,07,07,10,11,20.90
2011,07,07,10,12,25.70
2011,07,07,10,13,12.90
2011,07,07,10,14,22.50
2011,07,07,10,15,12.90
2011,07,07,10,16,22.50
2011,07,07,10,17,12.90
2011,07,07,10,18,19.30
2011,07,07,10,19,17.70
2011,07,07,10,20,20.90
2011,07,07,10,21,19.30
2011,07,07,10,22,17.70
2011,07,07,10,23,17.70
2011,07,07,10,24,22.50
2011,07,07,10,25,16.10
2011,07,07,10,26,6.40
2011,07,07,10,27,17.70
2011,07,07,10,28,16.10
2011,07,07,10,29,11.30
2011,07,07,10,30,4.80
2011,07,07,10,31,8.10
2011,07,07,10,32,9.60
2011,07,07,10,33,19.30
2011,07,07,10,34,12.90
2011,07,07,10,35,17.70
2011,07,07,10,36,9.60
2011,07,07,10,37,20.90
2011,07,07,10,38,16.10
2011,07,07,10,39,16.10
2011,07,07,10,40,11.30
2011,07,07,10,41,8.10
2011,07,07,10,42,6.40
2011,07,07,10,43,9.60
2011,07,07,10,44,20.90
2011,07,07,10,45,9.60
2011,07,07,10,46,16.10
2011,07,07,10,47,12.90
2011,07,07,10,48,9.60
2011,07,07,10,49,11.30
2011,07,07,10,50,4.80
2011,07,07,10,51,8.10
2011,07,07,10,52,19.30
2011,07,07,10,53,8.10
2011,07,07,10,54,6.40
2011,07,07,10,55,6.40
2011,07,07,10,56,9.60
2011,07,07,10,57,12.90
2011,07,07,10,58,6.40
2011,07,07,10,59,9.60
2011,07,07,11,00,12.90
2011,07,07,11,01,20.90
2011,07,07,11,02,16.10
2011,07,07,11,03,4.80
2011,07,07,11,04,11.30
2011,07,07,11,05,22.50
2011,07,07,11,06,12.90
2011,07,07,11,07,4.80
2011,07,07,11,08,6.40
2011,07,07,11,09,11.30
2011,07,07,11,10,16.10
2011,07,07,11,11,16.10
2011,07,07,11,12,19.30
2011,07,07,11,13,19.30
2011,07,07,11,14,11.30
2011,07,07,11,15,22.50
2011,07,07,11,16,16.10
2011,07,07,11,17,11.30
2011,07,07,11,18,8.10
2011,07,07,11,19,20.90
2011,07,07,11,20,17.70
2011,07,07,11,21,17.70
2011,07,07,11,22,19.30
2011,07,07,11,23,16.10
2011,07,07,11,24,11.30
2011,07,07,11,25,22.50
2011,07,07,11,26,24.20
2011,07,07,11,27,22.50
2011,07,07,11,28,27.40
2011,07,07,11,29,25.70
2011,07,07,11,30,11.30
2011,07,07,11,31,24.20
2011,07,07,11,32,24.20
2011,07,07,11,33,19.30
2011,07,07,11,34,37.00
2011,07,07,11,35,22.50
2011,07,07,11,36,20.90
2011,07,07,11,37,9.60
2011,07,07,11,38,24.20
2011,07,07,11,39,22.50
2011,07,07,11,40,14.50
2011,07,07,11,41,22.50
2011,07,07,11,42,17.70
2011,07,07,11,43,24.20
2011,07,07,11,44,22.50
2011,07,07,11,45,27.40
2011,07,07,11,46,16.10
2011,07,07,11,47,17.70
2011,07,07,11,48,24.20
2011,07,07,11,49,16.10
2011,07,07,11,50,22.50
2011,07,07,11,51,17.70
2011,07,07,11,52,16.10
2011,07,07,11,53,17.70
2011,07,07,11,54,9.60
2011,07,07,11,55,16.10
2011,07,07,11,56,24.20
2011,07,07,11,57,14.50
2011,07,07,11,58,9.60
2011,07,07,11,59,17.70
2011,07,07,12,00,22.50
2011,07,07,12,01,16.10
2011,07,07,12,02,8.10
2011,07,07,12,03,14.50
2011,07,07,12,04,22.50
2011,07,07,12,05,25.70
2011,07,07,12,06,25.70
2011,07,07,12,07,24.20
2011,07,07,12,08,22.50
2011,07,07,12,09,17.70
2011,07,07,12,10,14.50
2011,07,07,12,11,20.90
2011,07,07,12,12,17.70
2011,07,07,12,13,17.70
2011,07,07,12,14,11.30
2011,07,07,12,15,8.10
2011,07,07,12,16,4.80
2011,07,07,12,17,22.50
2011,07,07,12,18,19.30
2011,07,07,12,19,29.00
2011,07,07,12,20,16.10
2011,07,07,12,21,6.40
2011,07,07,12,22,35.40
2011,07,07,12,23,9.60
2011,07,07,12,24,19.30
2011,07,07,12,25,20.90
2011,07,07,12,26,30.60
2011,07,07,12,27,20.90
2011,07,07,12,28,20.90
2011,07,07,12,29,22.50
2011,07,07,12,30,19.30
2011,07,07,12,31,19.30
2011,07,07,12,32,16.10
2011,07,07,12,33,29.00
2011,07,07,12,34,17.70
2011,07,07,12,35,14.50
2011,07,07,12,36,8.10
2011,07,07,12,37,17.70
2011,07,07,12,38,6.40
2011,07,07,12,39,16.10
2011,07,07,12,40,29.00
2011,07,07,12,41,24.20
2011,07,07,12,42,19.30
2011,07,07,12,43,8.10
2011,07,07,12,44,16.10
2011,07,07,12,45,8.10
2011,07,07,12,46,11.30
2011,07,07,12,47,16.10
2011,07,07,12,48,22.50
2011,07,07,12,49,17.70
2011,07,07,12,50,9.60
2011,07,07,12,51,6.40
2011,07,07,12,52,33.80
2011,07,07,12,53,22.50
2011,07,07,12,54,11.30
2011,07,07,12,55,17.70
2011,07,07,12,56,19.30
2011,07,07,12,57,11.30
2011,07,07,12,58,20.90
2011,07,07,12,59,16.10
2011,07,07,13,00,17.70
2011,07,07,13,01,17.70
2011,07,07,13,02,8.10
2011,07,07,13,03,9.60
2011,07,07,13,04,17.70
2011,07,07,13,05,9.60
2011,07,07,13,06,14.50
2011,07,07,13,07,20.90
2011,07,07,13,08,16.10
2011,07,07,13,09,17.70
2011,07,07,13,10,17.70
2011,07,07,13,11,19.30
2011,07,07,13,12,14.50
2011,07,07,13,13,29.00
2011,07,07,13,14,27.40
2011,07,07,13,15,30.60
2011,07,07,13,16,22.50
2011,07,07,13,17,9.60
2011,07,07,13,18,27.40
2011,07,07,13,19,14.50
2011,07,07,13,20,17.70
2011,07,07,13,21,22.50
2011,07,07,13,22,25.70
2011,07,07,13,23,16.10
2011,07,07,13,24,19.30
2011,07,07,13,25,9.60
2011,07,07,13,26,20.90
2011,07,07,13,27,19.30
2011,07,07,13,28,16.10
2011,07,07,13,29,17.70
2011,07,07,13,30,22.50
2011,07,07,13,31,24.20
2011,07,07,13,32,24.20
2011,07,07,13,33,12.90
2011,07,07,13,34,20.90
2011,07,07,13,35,14.50
2011,07,07,13,36,19.30
2011,07,07,13,37,8.10
2011,07,07,13,38,20.90
2011,07,07,13,39,37.00
2011,07,07,13,40,29.00
2011,07,07,13,41,24.20
2011,07,07,13,42,35.40
2011,07,07,13,43,19.30
2011,07,07,13,44,38.60
2011,07,07,13,45,48.30
2011,07,07,13,46,22.50
2011,07,07,13,47,19.30
2011,07,07,13,48,19.30
2011,07,07,13,49,27.40
2011,07,07,13,50,14.50
2011,07,07,13,51,37.00
2011,07,07,13,52,32.20
2011,07,07,13,53,25.70
2011,07,07,13,54,25.70
2011,07,07,13,55,25.70
2011,07,07,13,56,25.70
2011,07,07,13,57,29.00
2011,07,07,13,58,25.70
2011,07,07,13,59,29.00
2011,07,07,14,00,22.50
2011,07,07,14,01,38.60
2011,07,07,14,02,22.50
2011,07,07,14,03,38.60
2011,07,07,14,04,35.40
2011,07,07,14,05,32.20
2011,07,07,14,06,11.30
2011,07,07,14,07,33.80
2011,07,07,14,08,40.20
2011,07,07,14,09,20.90
2011,07,07,14,10,16.10
2011,07,07,14,11,20.90
2011,07,07,14,12,35.40
2011,07,07,14,13,30.60
2011,07,07,14,14,19.30
2011,07,07,14,15,35.40
2011,07,07,14,16,25.70
2011,07,07,14,17,27.40
2011,07,07,14,18,51.50
2011,07,07,14,19,27.40
2011,07,07,14,20,27.40
2011,07,07,14,21,32.20
2011,07,07,14,22,24.20
2011,07,07,14,23,24.20
2011,07,07,14,24,24.20
2011,07,07,14,25,41.80
2011,07,07,14,26,22.50
2011,07,07,14,27,24.20
2011,07,07,14,28,27.40
2011,07,07,14,29,35.40
2011,07,07,14,30,32.20
2011,07,07,14,31,32.20
2011,07,07,14,32,27.40
2011,07,07,14,33,30.60
2011,07,07,14,34,16.10
2011,07,07,14,35,22.50
2011,07,07,14,36,32.20
2011,07,07,14,37,20.90
2011,07,07,14,38,17.70
2011,07,07,14,39,11.30
2011,07,07,14,40,20.90
2011,07,07,14,41,17.70
2011,07,07,14,42,20.90
2011,07,07,14,43,22.50
2011,07,07,14,44,19.30
2011,07,07,14,45,19.30
2011,07,07,14,46,25.70
2011,07,07,14,47,29.00
2011,07,07,14,48,14.50
2011,07,07,14,49,16.10
2011,07,07,14,50,19.30
2011,07,07,14,51,24.20
2011,07,07,14,52,38.60
2011,07,07,14,53,45.10
2011,07,07,14,54,41.80
2011,07,07,14,55,27.40
2011,07,07,14,56,40.20
2011,07,07,14,57,17.70
2011,07,07,14,58,20.90
2011,07,07,14,59,35.40
2011,07,07,15,00,25.70
2011,07,07,15,01,30.60
2011,07,07,15,02,17.70
2011,07,07,15,03,25.70
2011,07,07,15,04,30.60
2011,07,07,15,05,24.20
2011,07,07,15,06,40.20
2011,07,07,15,07,32.20
2011,07,07,15,08,25.70
2011,07,07,15,09,46.70
2011,07,07,15,10,45.10
2011,07,07,15,11,38.60
2011,07,07,15,12,40.20
2011,07,07,15,13,40.20
2011,07,07,15,14,33.80
2011,07,07,15,15,33.80
2011,07,07,15,16,33.80
2011,07,07,15,17,33.80
2011,07,07,15,18,32.20
2011,07,07,15,19,29.00
2011,07,07,15,20,40.20
2011,07,07,15,21,27.40
2011,07,07,15,22,22.50
2011,07,07,15,23,20.90
2011,07,07,15,24,20.90
2011,07,07,15,25,16.10
2011,07,07,15,26,25.70
2011,07,07,15,27,41.80
2011,07,07,15,28,27.40
2011,07,07,15,29,22.50
2011,07,07,15,30,29.00
2011,07,07,15,31,32.20
2011,07,07,15,32,32.20
2011,07,07,15,33,20.90
2011,07,07,15,34,33.80
2011,07,07,15,35,35.40
2011,07,07,15,36,32.20
2011,07,07,15,37,22.50
2011,07,07,15,38,25.70
2011,07,07,15,39,43.50
2011,07,07,15,40,22.50
2011,07,07,15,41,35.40
2011,07,07,15,42,32.20
2011,07,07,15,43,32.20
2011,07,07,15,44,27.40
2011,07,07,15,45,41.80
2011,07,07,15,46,29.00
2011,07,07,15,47,37.00
2011,07,07,15,48,38.60
2011,07,07,15,49,29.00
2011,07,07,15,50,38.60
2011,07,07,15,51,33.80
2011,07,07,15,52,41.80
2011,07,07,15,53,40.20
2011,07,07,15,54,37.00
2011,07,07,15,55,33.80
2011,07,07,15,56,37.00
2011,07,07,15,57,40.20
2011,07,07,15,58,33.80
2011,07,07,15,59,22.50
2011,07,07,16,00,35.40
2011,07,07,16,01,22.50
2011,07,07,16,02,25.70
2011,07,07,16,03,24.20
2011,07,07,16,04,48.30
2011,07,07,16,05,22.50
2011,07,07,16,06,20.90
2011,07,07,16,07,19.30
2011,07,07,16,08,30.60
2011,07,07,16,09,37.00
2011,07,07,16,10,33.80
2011,07,07,16,11,33.80
2011,07,07,16,12,20.90
2011,07,07,16,13,20.90
2011,07,07,16,14,25.70
2011,07,07,16,15,27.40
2011,07,07,16,16,32.20
2011,07,07,16,17,38.60
2011,07,07,16,18,29.00
2011,07,07,16,19,24.20
2011,07,07,16,20,32.20
2011,07,07,16,21,29.00
2011,07,07,16,22,27.40
2011,07,07,16,23,29.00
2011,07,07,16,24,20.90
2011,07,07,16,25,27.40
2011,07,07,16,26,24.20
2011,07,07,16,27,38.60
2011,07,07,16,28,53.10
2011,07,07,16,29,30.60
2011,07,07,16,30,24.20
2011,07,07,16,31,35.40
2011,07,07,16,32,30.60
2011,07,07,16,33,20.90
2011,07,07,16,34,22.50
2011,07,07,16,35,20.90
2011,07,07,16,36,17.70
2011,07,07,16,37,16.10
2011,07,07,16,38,17.70
2011,07,07,16,39,14.50
2011,07,07,16,40,29.00
2011,07,07,16,41,33.80
2011,07,07,16,42,29.00
2011,07,07,16,43,19.30
2011,07,07,16,44,22.50
2011,07,07,16,45,19.30
2011,07,07,16,46,14.50
2011,07,07,16,47,14.50
2011,07,07,16,48,24.20
2011,07,07,16,49,14.50
2011,07,07,16,50,12.90
2011,07,07,16,51,19.30
2011,07,07,16,52,14.50
2011,07,07,16,53,22.50
2011,07,07,16,54,22.50
2011,07,07,16,55,24.20
2011,07,07,16,56,19.30
2011,07,07,16,57,17.70
2011,07,07,16,58,24.20
2011,07,07,16,59,24.20
2011,07,07,17,00,22.50
2011,07,07,17,01,27.40
2011,07,07,17,02,22.50
2011,07,07,17,03,27.40
2011,07,07,17,04,8.10
2011,07,07,17,05,20.90
2011,07,07,17,06,24.20
2011,07,07,17,07,16.10
2011,07,07,17,08,17.70
2011,07,07,17,09,33.80
2011,07,07,17,10,20.90
2011,07,07,17,11,30.60
2011,07,07,17,12,20.90
2011,07,07,17,13,11.30
2011,07,07,17,14,8.10
2011,07,07,17,15,11.30
2011,07,07,17,16,24.20
2011,07,07,17,17,19.30
2011,07,07,17,18,16.10
2011,07,07,17,19,19.30
2011,07,07,17,20,27.40
2011,07,07,17,21,19.30
2011,07,07,17,22,25.70
2011,07,07,17,23,17.70
2011,07,07,17,24,22.50
2011,07,07,17,25,22.50
2011,07,07,17,26,20.90
2011,07,07,17,27,37.00
2011,07,07,17,28,35.40
2011,07,07,17,29,24.20
2011,07,07,17,30,20.90
2011,07,07,17,31,24.20
2011,07,07,17,32,22.50
2011,07,07,17,33,19.30
2011,07,07,17,34,30.60
2011,07,07,17,35,33.80
2011,07,07,17,36,27.40
2011,07,07,17,37,25.70
2011,07,07,17,38,27.40
2011,07,07,17,39,22.50
2011,07,07,17,40,24.20
2011,07,07,17,41,45.10
2011,07,07,17,42,32.20
2011,07,07,17,43,33.80
2011,07,07,17,44,20.90
2011,07,07,17,45,30.60
2011,07,07,17,46,19.30
2011,07,07,17,47,24.20
2011,07,07,17,48,35.40
2011,07,07,17,49,14.50
2011,07,07,17,50,22.50
2011,07,07,17,51,30.60
2011,07,07,17,52,37.00
2011,07,07,17,53,40.20
2011,07,07,17,54,24.20
2011,07,07,17,55,25.70
2011,07,07,17,56,29.00
2011,07,07,17,57,29.00
2011,07,07,17,58,27.40
2011,07,07,17,59,35.40
2011,07,07,18,00,37.00
2011,07,07,18,01,37.00
2011,07,07,18,02,19.30
2011,07,07,18,03,46.70
2011,07,07,18,04,32.20
2011,07,07,18,05,33.80
2011,07,07,18,06,24.20
2011,07,07,18,07,25.70
2011,07,07,18,08,33.80
2011,07,07,18,09,38.60
2011,07,07,18,10,49.90
2011,07,07,18,11,24.20
2011,07,07,18,12,24.20
2011,07,07,18,13,9.60
2011,07,07,18,14,20.90
2011,07,07,18,15,30.60
2011,07,07,18,16,38.60
2011,07,07,18,17,30.60
2011,07,07,18,18,33.80
2011,07,07,18,19,25.70
2011,07,07,18,20,32.20
2011,07,07,18,21,27.40
2011,07,07,18,22,25.70
2011,07,07,18,23,27.40
2011,07,07,18,24,22.50
2011,07,07,18,25,25.70
2011,07,07,18,26,29.00
2011,07,07,18,27,29.00
2011,07,07,18,28,46.70
2011,07,07,18,29,33.80
2011,07,07,18,30,32.20
2011,07,07,18,31,33.80
2011,07,07,18,32,35.40
2011,07,07,18,33,25.70
2011,07,07,18,34,30.60
2011,07,07,18,35,25.70
2011,07,07,18,36,33.80
2011,07,07,18,37,24.20
2011,07,07,18,38,19.30
2011,07,07,18,39,38.60
2011,07,07,18,40,40.20
2011,07,07,18,41,24.20
2011,07,07,18,42,14.50
2011,07,07,18,43,24.20
2011,07,07,18,44,33.80
2011,07,07,18,45,29.00
2011,07,07,18,46,32.20
2011,07,07,18,47,22.50
2011,07,07,18,48,16.10
2011,07,07,18,49,20.90
2011,07,07,18,50,35.40
2011,07,07,18,51,27.40
2011,07,07,18,52,25.70
2011,07,07,18,53,19.30
2011,07,07,18,54,30.60
2011,07,07,18,55,27.40
2011,07,07,18,56,22.50
2011,07,07,18,57,40.20
2011,07,07,18,58,30.60
2011,07,07,18,59,30.60
2011,07,07,19,00,25.70
2011,07,07,19,01,17.70
2011,07,07,19,02,33.80
2011,07,07,19,03,16.10
2011,07,07,19,04,20.90
2011,07,07,19,05,27.40
2011,07,07,19,06,40.20
2011,07,07,19,07,27.40
2011,07,07,19,08,40.20
2011,07,07,19,09,41.80
2011,07,07,19,10,46.70
2011,07,07,19,11,27.40
2011,07,07,19,12,24.20
2011,07,07,19,13,19.30
2011,07,07,19,14,22.50
2011,07,07,19,15,30.60
2011,07,07,19,16,27.40
2011,07,07,19,17,20.90
2011,07,07,19,18,25.70
2011,07,07,19,19,33.80
2011,07,07,19,20,22.50
2011,07,07,19,21,20.90
2011,07,07,19,22,30.60
2011,07,07,19,23,24.20
2011,07,07,19,24,33.80
2011,07,07,19,25,19.30
2011,07,07,19,26,24.20
2011,07,07,19,27,30.60
2011,07,07,19,28,20.90
2011,07,07,19,29,25.70
2011,07,07,19,30,27.40
2011,07,07,19,31,9.60
2011,07,07,19,32,20.90
2011,07,07,19,33,19.30
2011,07,07,19,34,9.60
2011,07,07,19,35,29.00
2011,07,07,19,36,20.90
2011,07,07,19,37,17.70
2011,07,07,19,38,12.90
2011,07,07,19,39,22.50
2011,07,07,19,40,32.20
2011,07,07,19,41,30.60
2011,07,07,19,42,27.40
2011,07,07,19,43,25.70
2011,07,07,19,44,20.90
2011,07,07,19,45,17.70
2011,07,07,19,46,25.70
2011,07,07,19,47,17.70
2011,07,07,19,48,17.70
2011,07,07,19,49,8.10
2011,07,07,19,50,8.10
2011,07,07,19,51,6.40
2011,07,07,19,52,11.30
2011,07,07,19,53,6.40
2011,07,07,19,54,16.10
2011,07,07,19,55,19.30
2011,07,07,19,56,14.50
2011,07,07,19,57,11.30
2011,07,07,19,58,17.70
2011,07,07,19,59,9.60
2011,07,07,20,00,6.40
2011,07,07,20,01,4.80
2011,07,07,20,02,17.70
2011,07,07,20,03,14.50
2011,07,07,20,04,19.30
2011,07,07,20,05,22.50
2011,07,07,20,06,17.70
2011,07,07,20,07,32.20
2011,07,07,20,08,16.10
2011,07,07,20,09,6.40
2011,07,07,20,10,9.60
2011,07,07,20,11,17.70
2011,07,07,20,12,14.50
2011,07,07,20,13,14.50
2011,07,07,20,14,11.30
2011,07,07,20,15,4.80
2011,07,07,20,16,14.50
2011,07,07,20,17,9.60
2011,07,07,20,18,4.80
2011,07,07,20,19,14.50
2011,07,07,20,20,24.20
2011,07,07,20,21,6.40
2011,07,07,20,22,20.90
2011,07,07,20,23,20.90
2011,07,07,20,24,32.20
2011,07,07,20,25,20.90
2011,07,07,20,26,19.30
2011,07,07,20,27,14.50
2011,07,07,20,28,8.10
2011,07,07,20,29,4.80
2011,07,07,20,30,12.90
2011,07,07,20,31,24.20
2011,07,07,20,32,16.10
2011,07,07,20,33,19.30
2011,07,07,20,34,19.30
2011,07,07,20,35,17.70
2011,07,07,20,36,16.10
2011,07,07,20,37,17.70
2011,07,07,20,38,14.50
2011,07,07,20,39,19.30
2011,07,07,20,40,19.30
2011,07,07,20,41,19.30
2011,07,07,20,42,20.90
2011,07,07,20,43,8.10
2011,07,07,20,44,1.60
2011,07,07,20,45,1.60
2011,07,07,20,46,6.40
2011,07,07,20,47,6.40
2011,07,07,20,48,14.50
2011,07,07,20,49,8.10
2011,07,07,20,50,4.80
2011,07,07,20,51,9.60
2011,07,07,20,52,9.60
2011,07,07,20,53,30.60
2011,07,07,20,54,32.20
2011,07,07,20,55,20.90
2011,07,07,20,56,9.60
2011,07,07,20,57,6.40
2011,07,07,20,58,11.30
2011,07,07,20,59,16.10
2011,07,07,21,00,22.50
2011,07,07,21,01,17.70
2011,07,07,21,02,8.10
2011,07,07,21,03,22.50
2011,07,07,21,04,16.10
2011,07,07,21,05,8.10
2011,07,07,21,06,3.20
2011,07,07,21,07,19.30
2011,07,07,21,08,12.90
2011,07,07,21,09,16.10
2011,07,07,21,10,20.90
2011,07,07,21,11,22.50
2011,07,07,21,12,3.20
2011,07,07,21,13,4.80
2011,07,07,21,14,9.60
2011,07,07,21,15,8.10
2011,07,07,21,16,14.50
2011,07,07,21,17,17.70
2011,07,07,21,18,9.60
2011,07,07,21,19,9.60
2011,07,07,21,20,24.20
2011,07,07,21,21,29.00
2011,07,07,21,22,27.40
2011,07,07,21,23,11.30